{"data":{"norad_id":66062,"epoch":"2026-05-25T00:07:35.683104Z","epoch_age_seconds":68388,"freshness":"FRESH","line1":"1 66062U 25235E   26145.00527411 -.00001579  00000+0 -41192-4 0  9999","line2":"2 66062  53.1585 250.9419 0001707  87.5804 272.5392 15.30197004 34609","mean_motion":15.30197004,"eccentricity":0.0001707,"inclination_deg":53.1585,"raan_deg":250.9419,"arg_perigee_deg":87.5804,"mean_anomaly_deg":272.5392,"bstar":-4.1192e-5,"rev_number":3460,"period_min":94.105529956978,"perigee_km":474.05414622463,"apogee_km":476.39388367514,"semimajor_km":6853.3610149499,"source":"CELESTRAK","updated_at":"2026-05-25T13:38:21.020721Z"}}